STARLINK-4100 (53144 NORAD) Tracking and Keplerian Element Data

This shows tracking and keplerian element data for the satellite.

Feedback or suggestion? Click here.




ElementValue
Catalog53144
NameSTARLINK-4100
Epoch Orbit130
Epoch Day269.91667824
Epoch Year2022
RAAN69.4534
Inclination53.2176
Eccentricity0.0001814
Argument of Perigee50.7547
Mean Anonmoly46.0055
Mean Motion15.08805393
Decay Rate0.00047806
L11 53144U 22083N 22269.91667824 .00047806 00000+0 30044-2 0 9993
L22 53144 53.2176 69.4534 0001814 50.7547 46.0055 15.08805393 1302

Live tracking and technical data element details for STARLINK-4100 (NORAD 53144). STARLINK-4100 can be tracked NOW for your location showing map with azimuth and elevation plus other details from your city location.

Track the satellite on the map from your city or location and see movement details for azimuth, elevation, latitude, longitude, range, height, and movement on the map or in text.







IsCatalogInMostPopularTable: catalog: 53144, numindb: 8
Update: records affected: 1



GetName: 53144 STARLINK-4100

Hit Count: updated at: Thu, 29 Sep 2022 11:14:38 GMT